OpenBCM V2.0.2 (Linux)

Packet Radio Mailbox

IZ3LSV

[San Dona' di P. JN]

 Login: GUEST





  
OZ1LQH > KEP      02.01.09 22:45l 76 Lines 3132 Bytes #999 (0) @ WW
BID : ARLK001
Read: GUEST
Subj: ARLK001 Keplerian data
Path: IZ3LSV<IW0GPS<PY1AYH<7M3TJZ<ON0AR<OZ5BBS
Sent: 090102/2033Z @:OZ5BBS.FYN.DNK.EU #:63099 [Odense] $:ARLK001
From: OZ1LQH@OZ5BBS.FYN.DNK.EU
To  : KEP@WW

ZCZC SK01
QST de W1AW  
Keplerian Bulletin 1  ARLK001
From ARRL Headquarters
Newington, CT  January 2, 2009
To all radio amateurs 

SB KEP ARL ARLK001
ARLK001 Keplerian data

Special thanks to AMSAT-NA (AMSAT.ORG) for the following Keplerian
data.

Decode 2-line elsets with the following key:
1 AAAAAU 00  0  0 BBBBB.BBBBBBBB  .CCCCCCCC  00000-0  00000-0 0  DDDZ
2 AAAAA EEE.EEEE FFF.FFFF GGGGGGG HHH.HHHH III.IIII JJ.JJJJJJJJKKKKKZ
KEY: A-CATALOGNUM B-EPOCHTIME C-DECAY D-ELSETNUM E-INCLINATION F-RAAN
G-ECCENTRICITY H-ARGPERIGEE I-MNANOM J-MNMOTION K-ORBITNUM Z-CHECKSUM

AO-07
1 07530U 74089B   09001.69239065 -.00000027  00000-0  10000-3 0  3676
2 07530 101.4450 032.3782 0011848 234.3511 125.6459 12.53574970561858
UO-11
1 14781U 84021B   09001.66121005 -.00000221  00000-0 -22184-4 0  8501
2 14781 098.1310 044.4011 0009611 148.8066 211.3716 14.79685320333206
AO-16
1 20439U 90005D   09001.67633673 -.00000030  00000-0  40842-5 0  5008
2 20439 098.2568 337.8601 0010210 310.1121 049.9167 14.31812034989323
AO-27
1 22825U 93061C   08366.97056531  .00000057  00000-0  39007-4 0  1422
2 22825 098.4150 319.8667 0009088 041.7845 318.4043 14.29255477796025
IO-26
1 22826U 93061D   09001.48006488 -.00000019  00000-0  91322-5 0  8607
2 22826 098.4080 321.1806 0009591 037.0315 323.1533 14.29505550796193
FO-29
1 24278U 96046B   09001.83280979  .00000011  00000-0  45433-4 0  9405
2 24278 098.5772 258.0075 0351215 061.3575 302.2408 13.52941568611252
GO-32
1 25397U 98043D   09001.65712251 -.00000096  00000-0 -24563-4 0  7864
2 25397 098.3432 032.7884 0001787 048.3114 311.8207 14.23152891544442
ISS
1 25544U 98067A   09002.51880503  .00011101  00000-0  87723-4 0  9840
2 25544 051.6419 074.9463 0007140 152.9297 338.7911 15.71940890579892
NO-44
1 26931U 01043C   09001.84271282 -.00000023  00000-0  23281-4 0   642
2 26931 067.0511 132.8861 0006026 257.9820 102.0613 14.29543691378802
SO-50
1 27607U 02058C   09001.67361646 -.00000100  00000-0  69256-5 0  7797
2 27607 064.5554 170.8162 0082133 240.7346 118.5516 14.71404475324172
CO-55
1 27844U 03031E   09001.77481061  .00000048  00000-0  42466-4 0  4786
2 27844 098.7151 013.2801 0009059 263.9257 096.0898 14.20615354285635
AO-51
1 28375U 04025K   09001.62097809  .00000003  00000-0  13793-4 0  2811
2 28375 098.0574 020.8934 0083220 271.3450 087.8212 14.40629211236978
VO-52
1 28650U 05017B   09001.16423496  .00000341  00000-0  49841-4 0  1180
2 28650 097.7667 068.0800 0026547 213.0054 146.9473 14.81539798197912
CO-58
1 28895U 05043F   09001.15554102  .00000284  00000-0  69059-4 0  2009
2 28895 098.0800 256.2499 0018441 147.6495 212.5905 14.59730023169363
HO-59
1 29484U 06041F   08170.27591928  .21901596  31637-5  19690-3 0  4662
2 29484 098.2496 292.5583 0013872 275.6258 084.5236 16.51113477 98738
DO-64
1 32789U 08021G   09001.82388933  .00000415  00000-0  59631-4 0  2546
2 32789 097.9702 066.9837 0015324 208.5927 151.4441 14.81576626 36816

Keplerian bulletins are transmitted twice weekly from W1AW.  The
next scheduled transmission of these data will be Tuesday, January 6,
2009, at 2330z on Baudot and AMTOR.
NNNN


Read previous mail | Read next mail


 04.05.2026 16:44:38lGo back Go up